Satellite-Ground Cal/Val Region Overpasses Predictions

Prediction of Satellite NPP Overpassing Cal/Val Region: PacNW

Region Location: (Latitude: 10.00, Longitude: 139.50) to (Latitude: 22.70, Longitude: 165.60).

Table of predicted overpasses for the next 14.0 days since TLE Epoch: 8/7/2020
Interval Starting Time Starting Location Ending Time Ending Location
1 08/08/2020 03:04:37 ( 10.03, 153.57) 08/08/2020 03:08:12 ( 22.65, 150.56)
2 08/08/2020 15:36:30 ( 22.70, 150.81) 08/08/2020 15:40:06 ( 10.02, 147.79)
3 08/09/2020 02:45:35 ( 10.02, 158.33) 08/09/2020 02:49:10 ( 22.64, 155.32)
4 08/09/2020 15:17:29 ( 22.64, 155.56) 08/09/2020 15:21:04 ( 10.02, 152.55)
5 08/10/2020 02:26:34 ( 10.02, 163.08) 08/10/2020 02:30:10 ( 22.70, 160.06)
6 08/10/2020 14:58:28 ( 22.65, 160.31) 08/10/2020 15:02:03 ( 10.03, 157.31)
7 08/11/2020 02:10:15 ( 19.58, 165.59) 08/11/2020 02:11:08 ( 22.69, 164.82)
8 08/11/2020 03:49:02 ( 10.02, 142.47) 08/11/2020 03:52:34 ( 22.46, 139.51)
9 08/11/2020 14:39:26 ( 22.65, 165.07) 08/11/2020 14:43:01 ( 10.03, 162.07)
10 08/11/2020 16:20:56 ( 22.65, 139.70) 08/11/2020 16:21:09 ( 21.88, 139.51)
11 08/12/2020 03:30:01 ( 10.01, 147.22) 08/12/2020 03:33:37 ( 22.69, 144.20)
12 08/12/2020 16:01:55 ( 22.65, 144.45) 08/12/2020 16:05:30 ( 10.03, 141.45)
13 08/13/2020 03:10:59 ( 10.01, 151.98) 08/13/2020 03:14:35 ( 22.69, 148.96)
14 08/13/2020 15:42:53 ( 22.65, 149.21) 08/13/2020 15:46:28 ( 10.03, 146.21)
15 08/14/2020 02:51:58 ( 10.01, 156.74) 08/14/2020 02:55:34 ( 22.69, 153.72)
16 08/14/2020 15:23:52 ( 22.66, 153.97) 08/14/2020 15:27:27 ( 10.04, 150.96)
17 08/15/2020 02:32:57 ( 10.00, 161.50) 08/15/2020 02:36:33 ( 22.68, 158.48)
18 08/15/2020 15:04:50 ( 22.66, 158.73) 08/15/2020 15:08:25 ( 10.04, 155.72)
19 08/16/2020 02:14:44 ( 12.88, 165.59) 08/16/2020 02:17:31 ( 22.68, 163.23)
20 08/16/2020 03:55:25 ( 10.00, 140.88) 08/16/2020 03:57:05 ( 15.88, 139.51)
21 08/16/2020 14:45:49 ( 22.66, 163.48) 08/16/2020 14:49:24 ( 10.04, 160.48)
22 08/17/2020 03:36:24 ( 10.00, 145.63) 08/17/2020 03:40:00 ( 22.68, 142.62)
23 08/17/2020 14:29:56 ( 11.57, 165.59) 08/17/2020 14:30:22 ( 10.05, 165.24)
24 08/17/2020 16:08:17 ( 22.66, 142.87) 08/17/2020 16:11:52 ( 10.04, 139.86)
25 08/18/2020 03:17:22 ( 10.00, 150.39) 08/18/2020 03:20:58 ( 22.68, 147.37)
26 08/18/2020 15:49:16 ( 22.66, 147.62) 08/18/2020 15:52:51 ( 10.04, 144.62)
27 08/19/2020 02:58:22 ( 10.06, 155.13) 08/19/2020 03:01:57 ( 22.68, 152.13)
28 08/19/2020 15:30:14 ( 22.66, 152.38) 08/19/2020 15:33:49 ( 10.05, 149.38)
29 08/20/2020 02:39:20 ( 10.06, 159.89) 08/20/2020 02:42:55 ( 22.68, 156.89)
30 08/20/2020 15:11:13 ( 22.67, 157.14) 08/20/2020 15:14:48 ( 10.05, 154.13)
31 08/21/2020 02:20:19 ( 10.06, 164.65) 08/21/2020 02:23:54 ( 22.68, 161.64)
